Location: Newark
(40.7060°N, 73.9980°W)
Time: 21:00:54
(UTC+00:00)

N. Korean satellite - Pass Details

Date: 26 November 2019
Orbit: 456 x 506 km, 97.2° (Epoch: 06 December)

Event Time Altitude Azimuth Distance (km) Brightness Sun altitude
Rises 23:09:37 0° 214° (SSW) 2,577 11.0 -18.4°
Reaches altitude 10° 23:12:56 10° 247° (WSW) 1,710 10.5 -19.0°
Maximum altitude 23:14:19 12° 269° (W) 1,605 10.3 -19.2°
Drops below altitude 10° 23:15:43 10° 292° (WNW) 1,720 10.2 -19.5°
Sets 23:19:05 0° 325° (NW) 2,616 10.6 -20.1°
